sat.trackr.live / text

‹ back to catalog

STARLINK-5123

NORAD 53979 · 2022-125R

PAYLOAD ACTIVE UNKNOWN

§ Identity

Operator
Country
US
Launch date
2022-10-05
Launch site
AFWTR
Launch vehicle
Mass (kg)
RCS (m²)

Purposes: comms

External: N2YO · Heavens-Above · Gunter

§ Orbital elements

Epoch: 2026-05-24T17:48:07.432416Z

Period
95.44 min
Inclination
53.2169°
Eccentricity
0.0001105
Mean motion
15.08810861 rev/d
Perigee alt
539.1 km
Apogee alt
540.6 km
Semi-major
6,918.0 km
B*
-1.9631e-4
RAAN
237.7003°
Arg perigee
83.6667°
Mean anomaly
276.4451°
Rev number
20,087

§ Raw data

STARLINK-51231 53979U 22125R   26144.74175269 -.00003408  00000+0 -19631-3 0  99922 53979  53.2169 237.7003 0001105  83.6667 276.4451 15.08810861200870

JSON: /api/v1/satellites/53979 · /tle

For live sub-satellite position, see the globe view (requires WebGL).

§ Visibility from observer

Set your observer location to see the next 7 days of passes ≥ 10°. The values pass through the URL so the page stays shareable.

No JS? Fill the form by hand. The geolocation button needs JavaScript.